{"data":{"norad_id":59188,"intl_designator":"2024-045L","name":"STARLINK-31478","alt_names":[],"object_type":"PAYLOAD","status":"ACTIVE","operator":null,"country":"US","launch_date":"2024-03-10","launch_site_code":"AFETR","launch_vehicle":null,"mission":null,"orbit_class":"UNKNOWN","rcs_meters":null,"size_class":null,"mass_kg":null,"dimensions":null,"purposes":["comms"],"wikipedia_slug":null,"has_3d_model":false,"image_url":null,"decayed_at":null,"tle_current":{"epoch":"2026-05-24T22:35:21.732864Z","epoch_age_seconds":76281,"freshness":"FRESH","line1":"1 59188U 24045L   26144.94122376  .00035216  00000+0  12822-2 0  9990","line2":"2 59188  43.0009  21.8581 0002003 263.4633  96.5991 15.27603780124821","mean_motion":15.2760378,"eccentricity":0.0002003,"inclination_deg":43.0009,"raan_deg":21.8581,"arg_perigee_deg":263.4633,"mean_anomaly_deg":96.5991,"bstar":0.0012822,"rev_number":12482,"period_min":94.265281276013,"perigee_km":481.60360977587,"apogee_km":484.35217240124,"semimajor_km":6861.1148910886,"source":"CELESTRAK","updated_at":"2026-05-25T13:38:18.860722Z"}}}